Location: Kelshall
(52.0000°N, 0.0500°W)
Time: 21:51:43
(UTC+00:00)

ATLAS 2AS CENTAUR R/B - Pass Details

Date: 17 January 2021
Orbit: 947 x 1265 km, 63.7° (Epoch: 13 February)

Event Time Altitude Azimuth Distance (km) Brightness Sun altitude
Rises 22:17:57 0° 301° (WNW) 4,201 6.4 -51.7°
Reaches altitude 10° 22:21:03 10° 309° (NW) 3,206 5.6 -52.1°
Enters shadow 22:22:53 17° 317° (NW) 2,658 5.1 -52.3°
